Regional Weather Roundup
Issued by NWS Kansas City/Pleasant Hill, MO

Home | Current Version | Previous Version | Graphics & Text | Print | Product List | Glossary Off
Versions: 1 2 3 4 5 6 7 8 9 10 11 12 13 14 15 16 17 18 19 20 21 22 23 24 25 26 27 28 29 30 31 32 33 34 35 36 37 38 39 40 41 42 43 44 45 46 47 48 49 50

000
ASUS43 KEAX 052004
RWREAX

WEATHER ROUNDUP FOR EASTERN KANSAS AND NORTHWEST MISSOURI
NATIONAL WEATHER SERVICE KANSAS CITY/PLEASANT HILL MO
300 PM CDT SUN JUL 05 2015

KSZ040-057-103>105-MOZ028-029-037-043-052100-
...KANSAS CITY METROPOLITAN AREA...

CITY           SKY/WX    TMP DP  RH WIND       PRES   REMARKS
K.C. INTL      PTSUNNY   87  75  67 S16       29.93F HX  96
K.C. DOWNTOWN  PTSUNNY   88  74  63 S12       29.92F HX  96
LEES SUMMIT    MOSUNNY   85  73  67 S12       29.96F HX  91
OLATHE - IXD   MOSUNNY   88  75  65 S13       29.95F HX  97
OLATHE - OJC   PTSUNNY   86  74  67 SE13      29.94F HX  94
LAWRENCE       MOSUNNY   91  73  55 S12       29.91F HX  99

$$

MOZ001>008-011>017-020>025-030>033-038>040-044>046-053-054-052100-
...NORTHERN AND CENTRAL MISSOURI...

CITY           SKY/WX    TMP DP  RH WIND       PRES   REMARKS
ST. JOSEPH     PTSUNNY   88  73  61 S16       29.91F HX  95
MOSBY          MOCLDY    88  72  58 SE10      29.93F HX  94
HARRISONVILLE  MOSUNNY   90  73  58 SE8       29.98F HX  98
WHITEMAN AFB   MOSUNNY   87  75  67 S13       29.96F HX  96
CLINTON        MOSUNNY   88  75  66 SE10      29.97F HX  97
SEDALIA        MOSUNNY   87  73  62 S8        30.00F HX  94
WARSAW         NOT AVBL
CHILLICOTHE      N/A     89  72  56 SE10G17   29.95F HX  96
KIRKSVILLE     CLOUDY    84  67  56 S13       30.00F

$$

MOZ041-047>049-056>058-063>065-088>090-097-052100-
...EASTERN AND SOUTHERN MISSOURI...

CITY           SKY/WX    TMP DP  RH WIND       PRES   REMARKS
ST. LOUIS INTL MOSUNNY   88  64  44 SE7       30.04F
SPIRIT OF STL  MOSUNNY   86  68  54 S5        30.02F
COLUMBIA       PTSUNNY   85  70  60 S9        30.01F
JEFFERSON CITY MOSUNNY   85  70  60 S9        30.00S
MEXICO         MOSUNNY   88  73  62 S8        30.02S HX  96
ROLLA          MOSUNNY   84  69  60 S8        30.03F
LEBANON        PTSUNNY   84  70  61 MISG      30.04F
OSAGE BEACH    PTSUNNY   86  72  62 SE8       30.01F HX  92
SPRINGFIELD    PTSUNNY   87  73  62 SE7       30.00F HX  94
BRANSON        PTSUNNY   82  73  74 E17       30.04F
JOPLIN         MOSUNNY   89  76  65 S8        29.98F HX 100
WEST PLAINS    PTSUNNY   82  69  64 E8        30.07F
MALDEN         MOSUNNY   88  68  51 CALM      30.05F HX  91

$$

IAZ060-094-KSZ022-034>040-054-083-096-NEZ052-066-093-052100-
...KANSAS...SOUTHEAST NEBRASKA AND IOWA...

CITY           SKY/WX    TMP DP  RH WIND       PRES   REMARKS
TOPEKA         PTSUNNY   89  72  56 SE15G21   29.90F HX  96
MANHATTAN      SUNNY     95  72  47 S18G24    29.85F HX 103
EMPORIA        SUNNY     89  72  56 S16G24    29.91F HX  96
CHANUTE        MOSUNNY   91  74  57 S13G21    29.94F HX 100
WICHITA        MOSUNNY   98  64  32 S20G26    29.87F HX 100
OMAHA          PTSUNNY   88  73  61 SE23G29   29.84F HX  95
LINCOLN        SUNNY     91  73  55 S22G30    29.83F HX  99
FALLS CITY     MOSUNNY   90  74  59 S17G23    29.87F HX  99
LAMONI         MOSUNNY   87  70  56 SE13G20   29.95S HX  92
DES MOINES     PTSUNNY   86  69  56 S14       29.93S HX  90

$$




USA.gov is the U.S. government's official web portal to all federal, state and local government web resources and services.